Date,TemperatureHighF,TemperatureAvgF,TemperatureLowF,DewpointHighF,DewpointAvgF,DewpointLowF,HumidityHigh,HumidityAvg,HumidityLow,PressureMaxIn,PressureMinIn,WindSpeedMaxMPH,WindSpeedAvgMPH,GustSpeedMaxMPH,PrecipitationSumIn
2013-1-1,45,43,39,-100,-100,-100,0,0,100,29.92,29.74,0,-999,0,0.00
2013-1-2,55,54,53,-100,-100,-100,0,0,100,30.27,30.12,0,-999,0,0.00
2013-1-3,50,50,49,-100,-100,-100,0,0,100,30.38,30.38,0,-999,0,0.00
2013-1-4,49,49,49,-100,-100,-100,0,0,100,30.54,30.54,0,-999,0,0.00
2013-1-5,51,50,49,-100,-100,-100,0,0,100,30.49,30.38,0,-999,0,0.00
2013-1-6,53,52,51,-100,-100,-100,0,0,100,30.40,30.32,0,-999,0,0.00
2013-1-7,56,56,55,-100,-100,-100,0,0,100,30.07,30.04,0,-999,0,0.00
2013-1-9,47,44,39,-100,-100,-100,0,0,100,30.21,30.12,0,-999,0,0.00
2013-1-10,45,42,40,-100,-100,-100,0,0,100,29.98,29.94,0,-999,0,0.00
2013-1-11,48,45,39,-100,-100,-100,0,0,100,30.03,29.88,0,-999,0,0.00
2013-1-12,44,42,38,-100,-100,-100,0,0,100,30.03,29.89,0,-999,0,0.00
2013-1-13,42,39,37,-100,-100,-100,0,0,100,30.16,30.04,0,-999,0,0.00
2013-1-14,43,42,41,-100,-100,-100,0,0,100,29.93,29.88,0,-999,0,0.00
2013-1-15,44,41,39,-100,-100,-100,0,0,100,29.87,29.72,0,-999,0,0.00
2013-1-16,41,38,33,-100,-100,-100,0,0,100,29.89,29.84,0,-999,0,0.00
2013-1-17,41,39,37,-100,-100,-100,0,0,100,29.94,29.84,0,-999,0,0.00
2013-1-21,37,36,36,-100,-100,-100,0,0,100,29.35,29.34,0,-999,0,0.00
2013-1-22,43,40,37,-100,-100,-100,0,0,100,29.62,29.59,0,-999,0,0.00
2013-1-23,41,40,39,-100,-100,-100,0,0,100,29.78,29.75,0,-999,0,0.00
2013-1-24,43,42,40,-100,-100,-100,0,0,100,30.04,29.96,0,-999,0,0.00
2013-1-25,41,41,41,-100,-100,-100,0,0,100,29.63,29.63,0,-999,0,0.00
2013-1-26,57,50,45,-100,-100,-100,0,0,100,29.65,29.04,0,-999,0,0.00
2013-1-27,46,44,40,-100,-100,-100,0,0,100,29.37,29.19,0,-999,0,0.00
2013-1-28,53,52,49,-100,-100,-100,0,0,100,29.18,29.08,0,-999,0,0.00
2013-1-29,52,51,50,-100,-100,-100,0,0,100,29.34,29.19,0,-999,0,0.00
2013-1-30,49,47,45,-100,-100,-100,0,0,100,29.81,29.40,0,-999,0,0.00
2013-1-31,49,46,44,-100,-100,-100,0,0,100,29.75,29.60,0,-999,0,0.00
2013-2-1,45,43,40,-100,-100,-100,0,0,100,29.85,29.36,0,-999,0,0.00
2013-2-2,44,42,38,-100,-100,-100,0,0,100,30.28,29.80,0,-999,0,0.00
2013-2-3,52,48,43,-100,-100,-100,0,0,100,30.18,29.82,0,-999,0,0.00
2013-2-4,49,45,38,-100,-100,-100,0,0,100,29.88,29.56,0,-999,0,0.00
2013-2-5,47,43,38,-100,-100,-100,0,0,100,29.57,29.41,0,-999,0,0.00
2013-2-6,45,42,38,-100,-100,-100,0,0,100,30.27,29.50,0,-999,0,0.00
2013-2-7,43,40,38,-100,-100,-100,0,0,100,30.21,29.97,0,-999,0,0.00
2013-2-8,45,42,38,-100,-100,-100,0,0,100,30.22,30.11,0,-999,0,0.00
2013-2-9,47,46,40,-100,-100,-100,0,0,100,30.06,29.78,0,-999,0,0.00
2013-2-10,40,39,38,-100,-100,-100,0,0,100,29.40,29.24,0,-999,0,0.00
2013-2-11,41,41,41,-100,-100,-100,0,0,100,29.59,29.59,0,-999,0,0.00
2013-2-12,41,39,36,-100,-100,-100,0,0,100,30.03,29.98,0,-999,0,0.00
2013-2-13,35,34,32,-100,-100,-100,0,0,100,30.02,29.94,0,-999,0,0.00
2013-2-18,46,45,43,-100,-100,-100,0,0,100,30.09,30.01,0,-999,0,0.00
2013-2-19,46,41,32,-100,-100,-100,0,0,100,30.12,30.05,0,-999,0,0.00
2013-2-20,46,41,35,-100,-100,-100,0,0,100,30.22,30.05,0,-999,0,0.00
2013-2-21,40,37,33,-100,-100,-100,0,0,100,30.28,30.14,0,-999,0,0.00
2013-2-22,38,36,34,-100,-100,-100,0,0,100,30.25,30.14,0,-999,0,0.00
2013-2-23,41,37,33,-100,-100,-100,0,0,100,30.31,30.19,0,-999,0,0.00
2013-2-24,39,38,36,-100,-100,-100,0,0,100,30.39,30.29,0,-999,0,0.00
2013-2-25,45,42,37,-100,-100,-100,0,0,100,30.58,30.52,0,-999,0,0.00
2013-2-26,44,41,40,-100,-100,-100,0,0,100,30.59,30.52,0,-999,0,0.00
2013-2-27,43,41,39,-100,-100,-100,0,0,100,30.65,30.55,0,-999,0,0.00
2013-2-28,45,41,36,-100,-100,-100,0,0,100,30.55,30.47,0,-999,0,0.00
2013-3-1,45,43,41,-100,-100,-100,0,0,100,30.50,30.45,0,-999,0,0.00
2013-3-2,45,43,35,-100,-100,-100,0,0,100,30.47,30.30,0,-999,0,0.00
2013-3-3,45,42,36,-100,-100,-100,0,0,100,30.28,30.11,0,-999,0,0.00
2013-3-4,44,42,41,-100,-100,-100,0,0,100,30.08,29.75,0,-999,0,0.00
2013-3-5,44,42,35,-100,-100,-100,0,0,100,29.73,29.58,0,-999,0,0.00
2013-3-6,46,44,40,-100,-100,-100,0,0,100,29.61,29.45,0,-999,0,0.00
2013-3-7,47,45,42,-100,-100,-100,0,0,100,29.49,29.26,0,-999,0,0.00
2013-3-8,47,46,44,-100,-100,-100,0,0,100,29.49,29.41,0,-999,0,0.00
2013-3-9,43,42,41,-100,-100,-100,0,0,100,29.69,29.63,0,-999,0,0.00
2013-3-10,41,36,31,-100,-100,-100,0,0,100,29.94,29.63,0,-999,0,0.00
2013-3-11,36,34,32,-100,-100,-100,0,0,100,30.04,29.94,0,-999,0,0.00
2013-3-12,42,36,27,-100,-100,-100,0,0,100,30.01,29.94,0,-999,0,0.00
2013-3-13,43,40,36,-100,-100,-100,0,0,100,30.06,29.86,0,-999,0,0.00
2013-3-14,45,41,36,-100,-100,-100,0,0,100,30.02,29.80,0,-999,0,0.00
2013-3-15,46,43,41,-100,-100,-100,0,0,100,29.74,29.36,0,-999,0,0.00
2013-3-16,43,41,39,-100,-100,-100,0,0,100,29.34,29.25,0,-999,0,0.00
2013-3-17,43,40,37,-100,-100,-100,0,0,100,29.24,29.15,0,-999,0,0.00
2013-3-18,44,41,40,-100,-100,-100,0,0,100,29.42,29.18,0,-999,0,0.00
2013-3-19,42,38,35,-100,-100,-100,0,0,100,29.52,29.38,0,-999,0,0.00
2013-3-20,44,41,36,-100,-100,-100,0,0,100,29.88,29.49,0,-999,0,0.00
2013-3-21,43,39,33,-100,-100,-100,0,0,100,30.01,29.54,0,-999,0,0.00
2013-3-22,43,37,33,-100,-100,-100,0,0,100,29.79,29.55,0,-999,0,0.00
2013-3-23,40,38,35,-100,-100,-100,0,0,100,29.92,29.86,0,-999,0,0.00
2013-3-24,39,36,32,-100,-100,-100,0,0,100,30.04,29.85,0,-999,0,0.00
2013-3-25,39,37,35,-100,-100,-100,0,0,100,30.10,30.03,0,-999,0,0.00
2013-3-26,37,35,33,-100,-100,-100,0,0,100,30.02,29.91,0,-999,0,0.00
2013-3-27,39,35,32,-100,-100,-100,0,0,100,29.92,29.87,0,-999,0,0.00
2013-3-28,42,36,30,-100,-100,-100,0,0,100,29.94,29.90,0,-999,0,0.00
2013-3-29,41,37,33,-100,-100,-100,0,0,100,29.90,29.75,0,-999,0,0.00
2013-3-30,42,37,31,-100,-100,-100,0,0,100,29.95,29.78,0,-999,0,0.00
2013-3-31,44,39,33,-100,-100,-100,0,0,100,29.96,29.82,0,-999,0,0.00
2013-4-1,40,38,35,-100,-100,-100,0,0,100,29.86,29.79,0,-999,0,0.00
2013-4-2,47,40,32,-100,-100,-100,0,0,100,30.07,29.86,0,-999,0,0.00
2013-4-3,47,40,31,-100,-100,-100,0,0,100,30.11,30.02,0,-999,0,0.00
2013-4-4,43,39,35,-100,-100,-100,0,0,100,30.08,29.98,0,-999,0,0.00
2013-4-5,47,40,34,-100,-100,-100,0,0,100,30.17,30.01,0,-999,0,0.00
2013-4-6,45,40,34,-100,-100,-100,0,0,100,30.31,30.19,0,-999,0,0.00
2013-4-7,45,40,33,-100,-100,-100,0,0,100,30.25,29.82,0,-999,0,0.00
2013-4-8,47,44,42,-100,-100,-100,0,0,100,29.77,29.47,0,-999,0,0.00
2013-4-9,51,45,40,-100,-100,-100,0,0,100,29.56,29.34,0,-999,0,0.00
2013-4-10,48,46,43,-100,-100,-100,0,0,100,29.64,29.42,0,-999,0,0.00
2013-4-11,51,46,43,-100,-100,-100,0,0,100,29.44,29.34,0,-999,0,0.00
2013-4-12,51,48,45,-100,-100,-100,0,0,100,29.73,29.25,0,-999,0,0.00
2013-4-13,50,47,45,-100,-100,-100,0,0,100,29.78,29.65,0,-999,0,0.00
2013-4-14,53,51,49,-100,-100,-100,0,0,100,29.86,29.71,0,-999,0,0.00
2013-4-15,54,50,48,-100,-100,-100,0,0,100,30.00,29.86,0,-999,0,0.00
2013-4-16,52,50,47,-100,-100,-100,0,0,100,30.03,29.80,0,-999,0,0.00
2013-4-17,53,50,48,-100,-100,-100,0,0,100,30.02,29.70,0,-999,0,0.00
2013-4-18,50,48,47,-100,-100,-100,0,0,100,30.09,29.72,0,-999,0,0.00
2013-4-19,55,49,44,-100,-100,-100,0,0,100,30.49,30.09,0,-999,0,0.00
2013-4-20,53,46,39,-100,-100,-100,0,0,100,30.52,30.29,0,-999,0,0.00
2013-4-21,52,47,44,-100,-100,-100,0,0,100,30.26,29.95,0,-999,0,0.00
2013-4-22,59,52,46,-100,-100,-100,0,0,100,29.95,29.82,0,-999,0,0.00
2013-4-23,62,52,47,-100,-100,-100,0,0,100,30.14,29.93,0,-999,0,0.00
2013-4-24,55,49,46,-100,-100,-100,0,0,100,30.26,30.08,0,-999,0,0.00
2013-4-25,54,49,44,-100,-100,-100,0,0,100,30.23,30.06,0,-999,0,0.00
2013-4-26,50,46,44,-100,-100,-100,0,0,100,30.13,29.98,0,-999,0,0.00
2013-4-27,48,44,37,-100,-100,-100,0,0,100,30.17,29.97,0,-999,0,0.00
2013-4-28,50,47,45,-100,-100,-100,0,0,100,30.11,29.77,0,-999,0,0.00
2013-4-29,54,48,42,-100,-100,-100,0,0,100,30.22,29.79,0,-999,0,0.00
2013-4-30,50,47,45,-100,-100,-100,0,0,100,30.35,30.21,0,-999,0,0.00
2013-5-1,55,48,44,-100,-100,-100,0,0,100,30.30,30.23,0,-999,0,0.00
2013-5-2,58,50,44,-100,-100,-100,0,0,100,30.30,30.11,0,-999,0,0.00
2013-5-3,57,52,47,-100,-100,-100,0,0,100,30.14,29.86,0,-999,0,0.00
2013-5-4,59,52,48,-100,-100,-100,0,0,100,30.00,29.82,0,-999,0,0.00
2013-5-5,60,54,49,-100,-100,-100,0,0,100,30.13,30.01,0,-999,0,0.00
2013-5-6,62,55,48,-100,-100,-100,0,0,100,30.10,30.01,0,-999,0,0.00
2013-5-7,61,54,47,-100,-100,-100,0,0,100,30.06,29.72,0,-999,0,0.00
2013-5-8,60,54,48,-100,-100,-100,0,0,100,29.70,29.39,0,-999,0,0.00
2013-5-9,51,49,46,-100,-100,-100,0,0,100,29.64,29.21,0,-999,0,0.00
2013-5-10,54,50,47,-100,-100,-100,0,0,100,29.73,29.50,0,-999,0,0.00
2013-5-11,53,48,45,-100,-100,-100,0,0,100,29.93,29.66,0,-999,0,0.00
2013-5-12,54,50,47,-100,-100,-100,0,0,100,29.92,29.72,0,-999,0,0.00
2013-5-13,51,48,45,-100,-100,-100,0,0,100,29.82,29.73,0,-999,0,0.00
2013-5-14,50,47,45,-100,-100,-100,0,0,100,29.71,29.37,0,-999,0,0.00
2013-5-15,50,46,44,-100,-100,-100,0,0,100,29.55,29.16,0,-999,0,0.00
2013-5-16,51,48,46,-100,-100,-100,0,0,100,29.61,29.49,0,-999,0,0.00
2013-5-17,56,50,47,-100,-100,-100,0,0,100,29.91,29.61,0,-999,0,0.00
2013-5-18,50,49,48,-100,-100,-100,0,0,100,29.88,29.76,0,-999,0,0.00
2013-5-21,62,58,50,-100,-100,-100,0,0,100,30.18,30.14,0,-999,0,0.00
2013-5-22,55,51,48,-100,-100,-100,0,0,100,30.21,30.09,0,-999,0,0.00
2013-5-23,51,47,41,-100,-100,-100,0,0,100,30.14,29.93,0,-999,0,0.00
2013-5-24,55,49,45,-100,-100,-100,0,0,100,30.19,29.83,0,-999,0,0.00
2013-5-25,59,51,43,-100,-100,-100,0,0,100,30.22,30.16,0,-999,0,0.00
2013-5-26,61,52,47,-100,-100,-100,0,0,100,30.16,29.83,0,-999,0,0.00
2013-5-27,53,51,46,-100,-100,-100,0,0,100,29.80,29.51,0,-999,0,0.00
2013-5-28,53,50,47,-100,-100,-100,0,0,100,29.59,29.49,0,-999,0,0.00
2013-5-29,57,52,50,-100,-100,-100,0,0,100,29.88,29.62,0,-999,0,0.00
2013-5-30,62,55,50,-100,-100,-100,0,0,100,30.09,29.88,0,-999,0,0.00
2013-5-31,57,53,49,-100,-100,-100,0,0,100,30.20,30.09,0,-999,0,0.00
2013-6-1,55,52,48,-100,-100,-100,0,0,100,30.33,30.20,0,-999,0,0.00
2013-6-2,58,53,49,-100,-100,-100,0,0,100,30.47,30.36,0,-999,0,0.00
2013-6-3,63,57,50,-100,-100,-100,0,0,100,30.50,30.46,0,-999,0,0.00
2013-6-4,63,57,52,-100,-100,-100,0,0,100,30.46,30.25,0,-999,0,0.00
2013-6-5,61,56,52,-100,-100,-100,0,0,100,30.26,30.14,0,-999,0,0.00
2013-6-6,62,55,51,-100,-100,-100,0,0,100,30.23,30.15,0,-999,0,0.00
2013-6-7,61,55,52,-100,-100,-100,0,0,100,30.29,30.23,0,-999,0,0.00
2013-6-10,63,58,53,-100,-100,-100,0,0,100,29.90,29.83,0,-999,0,0.00
2013-6-11,63,55,51,-100,-100,-100,0,0,100,29.85,29.66,0,-999,0,0.00
2013-6-12,61,55,49,54,-92,-100,100,5,100,29.70,29.56,0,-999,0,0.00
2013-6-13,60,55,51,42,-92,-100,54,3,54,29.89,29.55,0,-999,0,0.00
2013-6-14,59,54,52,52,-87,-100,99,8,85,29.92,29.41,0,-999,0,0.00
2013-6-15,61,54,50,51,-92,-100,75,4,75,29.71,29.50,0,-999,0,0.00
2013-6-16,63,57,53,-100,-100,-100,0,0,100,29.93,29.73,0,-999,0,0.00
2013-6-17,60,54,51,53,-64,-100,96,21,79,30.03,29.96,0,-999,0,0.00
2013-6-18,66,59,53,54,-73,-100,69,11,63,30.01,29.96,0,-999,0,0.00
2013-6-19,64,57,53,49,-82,-100,64,7,58,30.08,29.97,0,-999,0,0.00
2013-6-20,59,57,53,51,-75,-100,75,12,73,30.02,29.80,0,-999,0,0.00